Regional Weather Roundup
Issued by NWS

Home | Current Version | Previous Version | Graphics & Text | Print | Product List | Glossary On
Versions: 1 2 3 4 5 6 7 8 9 10 11 12 13 14 15 16 17 18 19 20 21 22 23 24 25 26 27 28 29 30 31 32 33 34 35 36 37 38 39 40 41 42 43 44 45 46 47 48 49 50
000
ASUS43 KDMX 270901
RWRIA

WEATHER ROUNDUP FOR IOWA
NATIONAL WEATHER SERVICE DES MOINES IA
300 AM CST MON FEB 27 2017

NOTE: "FAIR" INDICATES FEW OR NO CLOUDS BELOW 12,000 FEET WITH NO
SIGNIFICANT WEATHER AND/OR OBSTRUCTIONS TO VISIBILITY.

* - THESE STATIONS ARE NOT NWS STATIONS...THUS NOT UNDER NWS
QUALITY CONTROL.  THEY ALSO DO NOT REPORT WEATHER SUCH
AS PRECIPITATION OR FOG.

IAZ001>003-012>014-020>022-031>034-043>046-271000-
   NORTHWEST IOWA

CITY           SKY/WX    TMP DP  RH WIND       PRES   REMARKS
CARROLL *      CLEAR     23  21  93 CALM      29.98F
CHEROKEE *     CLEAR     15  14  98 CALM      29.97S FOG
DENISON *      CLEAR     23  21  93 CALM      29.96F
LE MARS *      CLEAR     19  19 100 CALM      29.97R
SHELDON *      CLEAR     25  25 100 S7        29.93S WCI  17
SIOUX CITY     CLEAR     18  14  84 E9        29.97R WCI   7
SPENCER        CLEAR     18  14  84 SW5       29.96R WCI  11
STORM LAKE *   CLEAR     18  16  93 S7        29.95F WCI   8
$$

IAZ055>058-069>071-079>083-090>094-271000-
   SOUTHWEST IOWA

CITY           SKY/WX    TMP DP  RH WIND       PRES   REMARKS
ATLANTIC *     CLEAR     23  21  93 CALM      29.99F
AUDUBON *      CLEAR     19  18  93 CALM      29.98F
CLARINDA *     CLEAR     21  21 100 CALM      30.03F
COUNCIL BLFS * CLEAR     28  23  80 SE7       29.97F WCI  21
CRESTON *      CLEAR     28  19  69 SE5       30.01S WCI  23
HARLAN  *      CLEAR     19  19 100 CALM      30.01F
LAMONI         CLEAR     31  26  82 S6        30.01S WCI  25
RED OAK *      CLEAR     23  21  93 CALM      30.00F
SHENANDOAH *   CLEAR     21  19  93 CALM      30.01S
$$

IAZ047>049-059>061-072>074-084-271000-
   CENTRAL IOWA

CITY           SKY/WX    TMP DP  RH WIND       PRES   REMARKS
AMES           FOG       23  22  96 CALM      30.01F VSB 1/4
ANKENY *       CLEAR     23  23 100 N3        30.03F
BOONE *        CLEAR     27  25  93 CALM      30.00F
CHARITON *     MOCLDY    30  27  86 S8        30.01F WCI  23
DES MOINES     CLEAR     31  21  66 NE3       30.01F
GRINNELL*      CLEAR     26  22  84 SE3       30.03F
MARSHALLTOWN   PTCLDY    22  22 100 SE5       30.02S WCI  16
NEWTON *       PTCLDY    27  23  86 E6        30.01F WCI  20
PELLA *        PTCLDY    31  22  69 E3        30.04F
PERRY *          N/A     26  24  96 CALM      30.01F
$$

IAZ004>006-015-016-023>025-035-036-271000-
   NORTH CENTRAL IOWA

CITY           SKY/WX    TMP DP  RH WIND       PRES   REMARKS
ALGONA *       CLEAR     16  16 100 S10       29.97S WCI   3
CLARION *      CLEAR     19  19 100 S9        30.00F WCI   9
ESTHERVILLE    CLEAR     16  14  92 S8        29.94F WCI   5
FORT DODGE *   CLEAR     19  14  79 CALM      30.00F
MASON CITY     CLEAR     13  10  88 S12       30.00F WCI  -1
FOREST CITY *  FOG        5   3  92 CALM      29.99S VSB<1/4
WEBSTER CITY * CLEAR     21  19  93 S8        29.98F WCI  12
IOWA FALLS *     N/A     24  22  92 CALM      30.02F
$$

IAZ007>011-017>019-026>030-037>042-050>054-066-271000-
   NORTHEAST IOWA

CITY           SKY/WX    TMP DP  RH WIND       PRES   REMARKS
CEDAR RAPIDS   PTCLDY    23  22  96 SE3       30.04F
CHARLES CITY * CLEAR     19  21 100 S8        30.01F WCI   9
DECORAH *      CLEAR     23  21  93 S6        30.01F WCI  16
DUBUQUE        PTCLDY    25  22  88 S5        30.05S WCI  19
MONTICELLO *   PTCLDY    23  21  93 CALM      30.05F
OELWEIN *      CLEAR     25  25 100 SE5       30.03F WCI  19
WATERLOO       CLEAR     21  19  92 CALM      30.03F FOG
$$

IAZ064-065-067-068-078-271000-
   EAST CENTRAL IOWA

CITY           SKY/WX    TMP DP  RH WIND       PRES   REMARKS
DAVENPORT      CLEAR     27  22  81 E3        30.06F
IOWA CITY      PTCLDY    28  24  85 CALM      30.07F
MUSCATINE *    PTCLDY    27  23  86 CALM      30.07F
QUAD CITIES    CLEAR     26  23  88 SE5       30.07S WCI  20
$$

IAZ062-063-075>077-085>089-095>099-271000-
   SOUTHEAST IOWA

CITY           SKY/WX    TMP DP  RH WIND       PRES   REMARKS
BURLINGTON     PTCLDY    30  29  96 S3        30.07F
FAIRFIELD *    PTCLDY    32  28  86 S8        30.04F WCI  25
KEOKUK *       CLEAR     34  32  93 S5        30.06F WCI  30
CENTERVILLE *    N/A     30  30 100 CALM      30.04S
OTTUMWA        CLOUDY    31  26  82 S5        30.02F WCI  26
WASHINGTON *   MOCLDY    27  23  86 SE7       30.06S WCI  19
$$

ABBREVIATIONS USED IN REMARKS
   TC - TEMPERATURES IN CELSIUS
  WCI - WIND CHILL INDEX
   HX - HEAT INDEX
  VSB - VISIBILITY
$$





USA.gov is the U.S. government's official web portal to all federal, state and local government web resources and services.